WESTFORD NEEDLES, 2361

Orbit data source: Space-Track

WESTFORD NEEDLES, 2361 is space debris in LEO originally from a launch on Thu, 09 May 1963 UTC launched from the Air Force Western Test Range (AFWTR). Debris objects in space refer to the collection of defunct objects orbiting the Earth. Examples of debris include non-operational satellites, rocket bodies, and fragments generated from explosions, collisions, or faulty payload assembly.

Loading next visibility...
Identifier
2361, 1963-014L
Orbit
LEO
Country
Flag of USUS
Related business
Manufacturer
Unknown
Mission
Spacecraft
Bus & Motor
Unknown
Mass
Unknown
Launch date (UTC)
1963-05-09 (63 years ago)
Launch vehicle
Unknown
Launch site
Air Force Western Test Range (AFWTR)
Object type
Payload
Rocket body
Debris
Shape & HBR
Unknown shape, 0.5 m
Radar Cross Section
Medium (>0.1 m² and <1 m²)

Expand to show TLE details & history
Last TLE update: 17 hours ago

TLE from 17 hours ago
0 WESTFORD NEEDLES
1 02361U 63014L   26254.15473326  .00000118  00000-0  52739-1 0  9993
2 02361  87.3837 172.7563 0147547 161.3494 199.2844  8.66282303  2251
Epoch: 2026-09-11T03:42Z
TLE epoch observation values (Epoch: 2026-09-11T03:42:48.953Z)
Latitude
0.00001°
Longitude
126.87017°
Altitude
3,778.262 km
Speed
6.222 km/s
True Right ascension
11h 31m 01s
True Declination
0° 00' 00"
Sunlit
Object was in daylight at epoch
Visualization orbit readout
Latitude
Unknown
Longitude
Unknown
Altitude
Unknown
Speed
Unknown
Apparent Right ascension
Unknown
Apparent Declination
Unknown
Sunlit
N/A
Visualization observer readout
Local Sidereal Time
13:00:11
Azimuth
Unknown
Elevation
Unknown
Doppler factor
Unknown
Orbital elements
Apogee altitude
3,781.903 km
Perigee altitude
3,486.446 km
Semi-major axis
10,012.312 km
Eccentricity
0.01475
Inclination
87.3837°
RAAN
172.7563°
Arg. of periapsis
161.3494°
True anomaly
198.73558°
Mean anomaly
199.2844°
Eccentric anomaly
199.00904°
Mean motion
2.16641 °/min
Orbital period
166.17 mins
BSTAR
0.052739
Loading maneuver chart data...
Computing Atmospheric mass density...
Loading historical data...
Loading historical data...
Loading historical data...
Loading historical data...
Loading historical data...
Loading historical data...
Loading historical data...

Documentation

Showing up to 5 results
|